User: anonymous   Login
Location: Hale Hill Observatory
(39.3806°N, 86.8431°W)
Time: 02:35:29
(UTC-05:00)
Language:

Cosmos 990 Rocket - Orbit

View from above orbital plane
View from above orbital plane
View from above satellite
View from above satellite

Ground track
Ground track

The orbit data is extracted from the following two-line orbital elements,

1 10677U 78019B   14329.16600125  .00000218  00000-0  78034-4 0  5652
2 10677 074.0383 228.6713 0015120 177.3224 182.8015 14.39736150927914
Epoch (UTC): 25 November 2014 03:59:02
Eccentricity: 0.0015120
inclination: 74.0383°
perigee height: 748 km
apogee height: 770 km
right ascension of ascending node: 228.6713°
argument of perigee: 177.3224°
revolutions per day: 14.39736150
mean anomaly at epoch: 182.8015°
orbit number at epoch: 92791

The dashed part of the orbit path shows where the satellite is in the earth's shadow,  

DLR